This demonstration page uses our WeatherBlox Daily Observations layout. Learn more.

38.88101, -77.10428

Hourly Observations for January 29, 2017

Temp ( °F °C ) Dew Point ( °F °C ) Humidity (%) Winds ( mph kmh ) Pressure ( in mb ) Visibility ( mi km ) Precip ( " mm )
12:52 am 00:52 Mostly Cloudy 36 2.2 26 -3.3 67 67 SSW 5 7 29.75 1008 10 16.0934 0 0
1:52 am 01:52 Cloudy 36 2.2 25 -3.9 64 64 WSW 3 6 29.75 1008 10 16.0934 0 0
2:52 am 02:52 Mostly Cloudy 36 2.2 25 -3.9 64 64 SW 5 7 29.75 1008 10 16.0934 0 0
3:52 am 03:52 Mostly Cloudy 35 1.7 27 -2.8 72 72 SSW 8 13 29.75 1008 10 16.0934 0 0
4:52 am 04:52 Mostly Cloudy 37 2.8 23 -5 57 57 SW 3 6 29.76 1008 10 16.0934 0 0
5:52 am 05:52 Mostly Cloudy 35 1.7 25 -3.9 67 67 WSW 3 6 29.77 1008 10 16.0934 0 0
6:52 am 06:52 Mostly Cloudy 37 2.8 27 -2.8 67 67 SSW 3 6 29.77 1008 10 16.0934 0 0
7:52 am 07:52 Mostly Cloudy 39 3.9 25 -3.9 57 57 VRB 5 7 29.79 1009 10 16.0934 0 0
8:52 am 08:52 Mostly Cloudy 40 4.4 26 -3.3 58 58 NW 6 9 29.81 1010 10 16.0934 0 0
9:52 am 09:52 Cloudy 42 5.6 25 -3.9 51 51 NNW 6 9 29.83 1010 10 16.0934 0 0
10:52 am 10:52 Mostly Cloudy 45 7.2 24 -4.4 44 44 NW 10 17 29.82 1010 10 16.0934 0 0
11:52 am 11:52 Mostly Cloudy 44 6.7 22 -5.6 41 41 W 8 13 29.8 1009 10 16.0934 0 0
12:52 pm 12:52 Cloudy 46 7.8 22 -5.6 38 38 NW 12 19 29.77 1008 10 16.0934 0 0
1:52 pm 13:52 Cloudy 45 7.2 21 -6.1 39 39 W 8 13 29.75 1007 10 16.0934 0 0
2:52 pm 14:52 Cloudy 46 7.8 21 -6.1 37 37 W 8 13 29.73 1007 10 16.0934 0 0
3:52 pm 15:52 Mostly Cloudy 45 7.2 21 -6.1 39 39 VRB 6 9 29.74 1007 10 16.0934 0 0
4:52 pm 16:52 Cloudy 45 7.2 20 -6.7 37 37 W 7 11 29.75 1007 10 16.0934 0 0
5:52 pm 17:52 Cloudy 44 6.7 24 -4.4 45 45 SW 9 15 29.76 1008 10 16.0934 0 0
6:52 pm 18:52 Cloudy 42 5.6 27 -2.8 55 55 WNW 13 20 29.78 1008 10 16.0934 0 0
7:52 pm 19:52 Cloudy 40 4.4 30 -1.1 68 68 WNW 12 19 29.78 1008 10 16.0934 0 0
8:52 pm 20:52 Cloudy 39 3.9 30 -1.1 70 70 N 6 9 29.77 1008 10 16.0934 0 0
9:52 pm 21:52 Cloudy 39 3.9 30 -1.1 70 70 NNW 5 7 29.77 1008 10 16.0934 0 0
10:52 pm 22:52 Cloudy 39 3.9 30 -1.1 70 70 NNW 9 15 29.76 1008 10 16.0934 0 0
11:52 pm 23:52 Cloudy 39 3.9 31 -0.6 73 73 N 10 17 29.76 1008 10 16.0934 0 0

Powered by AerisWeather